Location: Lewisville
(33.0462°N, 96.9942°W)
Time: 16:06:58
(UTC-05:00)

Hubble Space Telescope - Visible Passes

Search period start: 03 August 2020 00:00
Search period end: 13 August 2020 00:00
Orbit: 536 x 540 km, 28.5° (Epoch: 02 August)

Date Brightness Start Highest point End Pass type
(mag) Time Alt. Az. Time Alt. Az. Time Alt. Az.
06 Aug 3.1 06:17:31 10° S 06:19:31 13° SSE 06:21:33 10° SE visible
07 Aug 2.9 06:06:06 10° SSW 06:08:44 16° SSE 06:11:21 10° ESE visible
08 Aug 2.6 05:54:55 10° SSW 05:57:56 20° SSE 06:00:58 10° ESE visible
09 Aug 2.3 05:44:48 15° SSW 05:47:09 23° SSE 05:50:27 10° ESE visible
10 Aug 2.1 05:34:40 20° SSW 05:36:23 27° SSE 05:39:54 10° ESE visible
11 Aug 1.8 05:24:31 27° SSW 05:25:36 31° SSE 05:29:17 10° ESE visible
12 Aug 1.6 05:14:22 33° S 05:14:51 35° S 05:18:37 10° ESE visible
